Waarnemingen

Advertentie
Mijn weer
AWG, Nederland (6208): temperatuur & dauwpunt: 22.06.2017 05:00:00 - 28.06.2017 05:00:00 (CEST)AWG, Nederland (6208): windsnelheid & windstoten: 22.06.2017 05:00:00 - 28.06.2017 05:00:00 (CEST)AWG, Nederland (6208): windrichting: 22.06.2017 05:00:00 - 28.06.2017 05:00:00 (CEST)AWG, Nederland (6208): luchtdruk: 22.06.2017 05:00:00 - 28.06.2017 05:00:00 (CEST)AWG, Nederland (6208): zicht: 22.06.2017 05:00:00 - 28.06.2017 05:00:00 (CEST)
Datum & Tijd tt [°C] td [°C] ff [km/u] ff [kn] fx [km/u] fx [kn] dd ppp [hPa] vv [km]
28.06.2017 05:00:00 16,7 14,7 39 21 40 21 O 1001,1 10
28.06.2017 04:00:00 16,6 15,0 29 16 32 18 O 1001,9 10
28.06.2017 03:00:00 17,2 14,0 28 15 32 18 O 1003,1 10
28.06.2017 02:00:00 17,3 13,7 26 14 32 18 O 1004,3 10
28.06.2017 01:00:00 17,2 13,1 31 17 36 19 O 1005,1 10
28.06.2017 00:00:00 17,0 12,7 37 20 36 19 O 1005,8 10
27.06.2017 23:00:00 16,9 12,4 34 18 36 19 O 1006,4 10
27.06.2017 22:00:00 16,8 12,4 34 18 36 19 O 1006,9 10
27.06.2017 21:00:00 16,4 12,1 37 20 40 21 O 1007,5 10
27.06.2017 20:00:00 16,3 11,5 35 19 36 19 ONO 1007,7 10
27.06.2017 19:00:00 16,2 10,6 35 19 36 19 ONO 1008,1 10
27.06.2017 18:00:00 16,4 10,8 35 19 36 19 ONO 1008,8 10
27.06.2017 17:00:00 16,3 10,6 31 17 32 18 O 1009,6 10
27.06.2017 16:00:00 16,0 10,4 31 17 32 18 ONO 1010,3 10
27.06.2017 15:00:00 15,7 10,6 26 14 29 16 ONO 1010,8 10
27.06.2017 14:00:00 15,6 9,6 22 12 25 14 ONO 1011,7 10
27.06.2017 13:00:00 15,5 9,1 21 11 25 14 ONO 1012,0 10
27.06.2017 12:00:00 15,8 8,5 16 9 22 12 O 1012,5 10
27.06.2017 11:00:00 15,7 8,8 13 7 18 10 O 1013,0 10
27.06.2017 10:00:00 15,3 7,9 13 7 18 10 O 1013,2 10
27.06.2017 09:00:00 14,7 8,4 13 7 14 8 OZO 1013,3 10
27.06.2017 08:00:00 14,4 8,7 13 7 14 8 OZO 1013,5 10
27.06.2017 07:00:00 14,4 6,6 8 4 14 8 ONO 1013,6 10
27.06.2017 06:00:00 14,1 7,3 8 4 11 6 NO 1013,9 10
27.06.2017 05:00:00 14,1 6,8 9 5 18 10 N 1013,8 10
27.06.2017 04:00:00 14,1 7,6 11 6 18 10 NNO 1014,1 10
27.06.2017 03:00:00 14,3 7,2 9 5 14 8 N 1014,7 10
27.06.2017 02:00:00 14,3 7,4 9 5 14 8 NNW 1014,7 10
27.06.2017 01:00:00 14,3 7,6 11 6 14 8 N 1015,0 10
27.06.2017 00:00:00 14,3 8,5 8 4 18 10 NW 1015,0 10
26.06.2017 23:00:00 14,4 8,7 15 8 22 12 NNW 1014,7 10
26.06.2017 22:00:00 14,5 8,8 16 9 22 12 N 1014,6 10
26.06.2017 21:00:00 14,5 8,0 21 11 25 14 N 1014,5 10
26.06.2017 20:00:00 14,7 8,2 21 11 22 12 NNW 1014,8 10
26.06.2017 19:00:00 14,7 8,2 21 11 25 14 NNW 1015,0 10
26.06.2017 18:00:00 14,7 8,4 24 13 25 14 NW 1015,0 10
26.06.2017 17:00:00 14,6 8,3 22 12 25 14 NW 1015,0 10
26.06.2017 16:00:00 14,5 8,5 22 12 25 14 NW 1015,0 10
26.06.2017 15:00:00 14,5 8,4 22 12 25 14 NW 1014,6 10
26.06.2017 14:00:00 14,3 8,8 24 13 25 14 NW 1014,4 10
26.06.2017 13:00:00 14,3 8,0 26 14 29 16 NW 1014,0 10
26.06.2017 12:00:00 14,5 9,0 26 14 29 16 WNW 1013,7 10
26.06.2017 11:00:00 14,5 9,8 26 14 29 16 NW 1013,0 10
26.06.2017 10:00:00 14,6 9,4 29 16 32 18 WNW 1012,5 10
26.06.2017 09:00:00 14,6 9,1 31 17 36 19 WNW 1011,9 10
26.06.2017 08:00:00 14,9 9,4 29 16 32 18 WNW 1011,2 34
26.06.2017 07:00:00 15,1 10,0 31 17 32 18 WNW 1010,5 10
26.06.2017 06:00:00 15,3 9,0 34 18 36 19 WNW 1010,2 10
26.06.2017 05:00:00 15,2 10,0 35 19 36 19 NW 1009,7 10
26.06.2017 04:00:00 15,3 12,0 26 14 36 19 W 1009,4 10
26.06.2017 03:00:00 15,8 12,6 24 13 36 19 WNW 1009,6 10
26.06.2017 02:00:00 16,0 12,9 16 9 25 14 NW 1009,4 10
26.06.2017 01:00:00 15,9 12,3 26 14 29 16 WNW 1009,2 10
26.06.2017 00:00:00 15,7 12,9 18 10 18 10 W 1009,7 10
25.06.2017 23:00:00 15,5 13,0 18 10 22 12 W 1009,6 10
25.06.2017 22:00:00 15,3 12,4 22 12 25 14 W 1009,7 10
25.06.2017 21:00:00 15,7 12,4 26 14 29 16 W 1009,9 10
25.06.2017 20:00:00 15,9 11,4 28 15 29 16 W 1010,1 10
25.06.2017 19:00:00 15,8 11,1 28 15 29 16 W 1010,4 10
25.06.2017 18:00:00 15,4 10,2 29 16 32 18 W 1010,1 10
25.06.2017 17:00:00 15,6 9,8 31 17 32 18 W 1010,3 10
25.06.2017 16:00:00 15,6 9,8 21 11 36 19 W 1010,1 10
25.06.2017 15:00:00 14,7 10,9 26 14 36 19 W 1010,2 10
25.06.2017 14:00:00 15,3 10,3 24 13 32 18 W 1010,0 10
25.06.2017 13:00:00 15,3 9,6 34 18 36 19 W 1009,8 10
25.06.2017 12:00:00 15,9 10,7 31 17 32 18 W 1009,0 10
25.06.2017 11:00:00 15,9 9,1 31 17 36 19 W 1008,7 10
25.06.2017 10:00:00 16,1 11,4 26 14 32 18 W 1008,4 10
25.06.2017 09:00:00 15,4 9,3 29 16 32 18 WNW 1008,2 10
25.06.2017 08:00:00 16,4 11,5 34 18 32 18 WNW 1007,7 10
25.06.2017 07:00:00 16,9 11,4 31 17 32 18 W 1007,4 10
25.06.2017 06:00:00 17,2 14,3 26 14 25 14 W 1007,4 10
25.06.2017 05:00:00 16,8 14,9 22 12 25 14 WZW 1007,5 10
25.06.2017 04:00:00 16,2 14,0 18 10 32 18 WZW 1007,7 10
25.06.2017 03:00:00 16,7 15,3 31 17 32 18 W 1007,7 8
25.06.2017 02:00:00 17,5 15,9 31 17 36 19 W 1008,0 10
25.06.2017 01:00:00 17,9 16,3 34 18 36 19 ZW 1008,5 10
25.06.2017 00:00:00 17,9 16,3 29 16 32 18 ZW 1009,2 10
24.06.2017 23:00:00 17,7 15,8 26 14 29 16 WZW 1009,7 10
24.06.2017 22:00:00 15,7 13,9 9 5 18 10 ZZW 1010,1 10
24.06.2017 21:00:00 15,1 13,0 9 5 14 8 W 1010,4 10
24.06.2017 20:00:00 15,0 12,9 21 11 29 16 W 1010,8 10
24.06.2017 19:00:00 15,4 12,6 24 13 29 16 WNW 1011,1 10
24.06.2017 18:00:00 16,6 11,4 26 14 29 16 W 1011,6 10
24.06.2017 17:00:00 16,5 12,2 29 16 29 16 W 1011,8 10
24.06.2017 16:00:00 16,4 12,2 31 17 32 18 W 1011,9 10
24.06.2017 15:00:00 16,1 12,0 31 17 32 18 W 1011,6 10
24.06.2017 14:00:00 15,8 12,5 37 20 36 19 W 1011,4 10
24.06.2017 13:00:00 16,1 13,3 42 23 43 23 W 1011,1 10
24.06.2017 12:00:00 16,8 13,5 42 23 43 23 W 1010,5 10
24.06.2017 11:00:00 17,5 14,4 39 21 40 21 W 1010,3 10
24.06.2017 10:00:00 17,5 14,5 35 19 36 19 WZW 1010,3 10
24.06.2017 09:00:00 16,8 14,7 35 19 36 19 W 1010,4 10
24.06.2017 08:00:00 16,9 14,9 31 17 36 19 W 1010,4 10
24.06.2017 07:00:00 17,7 15,2 34 18 36 19 WZW 1010,4 10
24.06.2017 06:00:00 17,6 15,1 29 16 32 18 WZW 1010,7 10
24.06.2017 05:00:00 17,7 15,2 28 15 32 18 WZW 1011,0 10
24.06.2017 04:00:00 17,7 15,7 28 15 29 16 WZW 1011,5 10
24.06.2017 03:00:00 17,3 15,6 28 15 32 18 WZW 1012,0 10
24.06.2017 02:00:00 17,4 15,8 28 15 29 16 ZW 1012,4 10
24.06.2017 01:00:00 17,4 15,9 26 14 29 16 WZW 1012,8 10
24.06.2017 00:00:00 16,9 15,7 26 14 29 16 WZW 1013,2 9
23.06.2017 23:00:00 17,2 15,2 29 16 32 18 WZW 1013,4 10
23.06.2017 22:00:00 17,4 14,4 28 15 32 18 WZW 1013,6 10
23.06.2017 21:00:00 16,1 14,7 25 14 32 18 WZW 1014,0 10
23.06.2017 20:00:00 16,8 13,9 35 19 36 19 WZW 1014,1 10
23.06.2017 19:00:00 16,8 13,2 35 19 40 21 WZW 1013,8 10
23.06.2017 18:00:00 16,3 13,0 31 17 40 21 WZW 1014,1 10
23.06.2017 17:00:00 16,7 12,7 41 22 47 25 W 1014,2 10
23.06.2017 16:00:00 17,4 13,8 37 20 40 21 WZW 1013,2 10
23.06.2017 15:00:00 17,2 13,3 37 20 40 21 WZW 1013,6 10
23.06.2017 14:00:00 16,9 12,6 39 21 40 21 WZW 1013,6 10
23.06.2017 13:00:00 17,3 12,2 29 16 32 18 W 1013,3 10
23.06.2017 12:00:00 16,5 11,6 34 18 36 19 W 1013,4 10
23.06.2017 11:00:00 16,2 11,7 29 16 36 19 W 1012,9 10
23.06.2017 10:00:00 16,4 12,9 28 15 25 14 W 1012,4 10
23.06.2017 09:00:00 15,8 13,4 28 15 29 16 W 1012,1 10
23.06.2017 08:00:00 15,5 13,2 26 14 29 16 W 1011,5 10
23.06.2017 07:00:00 15,6 13,2 29 16 32 18 WNW 1011,0 10
23.06.2017 06:00:00 15,7 13,0 35 19 47 25 WNW 1010,7 10
23.06.2017 05:00:00 15,6 13,3 37 20 43 23 WNW 1010,3 10
23.06.2017 04:00:00 15,5 13,7 42 23 47 25 WNW 1009,9 10
23.06.2017 03:00:00 15,4 13,9 39 21 50 27 WNW 1009,9 10
23.06.2017 02:00:00 15,7 14,6 42 23 54 29 WNW 1009,4 8
23.06.2017 01:00:00 15,9 14,7 46 25 50 27 WNW 1008,8 9
23.06.2017 00:00:00 15,9 14,7 46 25 50 27 WNW 1008,3 5
22.06.2017 23:00:00 16,2 15,4 42 23 50 27 WNW 1007,5 4,9
22.06.2017 22:00:00 16,6 15,4 44 24 43 23 W 1006,6 8
22.06.2017 21:00:00 17,7 15,7 39 21 40 21 W 1006,8 9
22.06.2017 20:00:00 17,8 16,4 29 16 32 18 W 1007,3 6
22.06.2017 19:00:00 18,0 16,4 34 18 40 21 W 1006,8 8
22.06.2017 18:00:00 20,6 18,8 21 11 29 16 ZW 1007,2 8
22.06.2017 17:00:00 20,0 18,5 9 5 40 21 - 1006,5 7
22.06.2017 16:00:00 19,0 17,1 46 25 50 27 W 1008,5 10
22.06.2017 15:00:00 21,8 19,1 31 17 32 18 ZW 1007,4 8
22.06.2017 14:00:00 21,6 18,6 31 17 32 18 WZW 1007,8 9
22.06.2017 13:00:00 21,7 18,2 26 14 25 14 WZW 1008,0 10
22.06.2017 12:00:00 21,4 18,2 24 13 25 14 ZW 1008,3 10
22.06.2017 11:00:00 21,5 18,0 26 14 40 21 W 1008,5 10
22.06.2017 10:00:00 23,2 17,0 35 19 36 19 ZW 1008,2 10
22.06.2017 09:00:00 23,2 16,3 37 20 43 23 ZZW 1007,6 10
22.06.2017 08:00:00 21,2 14,9 42 23 47 25 Z 1007,8 10
22.06.2017 07:00:00 20,1 14,3 34 18 47 25 Z 1008,3 10
22.06.2017 06:00:00 18,7 13,5 39 21 43 23 Z 1009,6 10
22.06.2017 05:00:00 17,6 13,0 46 25 43 23 ZO 1010,6 10

tt = temperatuur
td = dauwpunt
ff = windsnelheid
fx = windstoten
dd = windrichting
ppp = luchtdruk
vv = zicht

Weerstations in de omgeving